Fort Bragg, NC

11:06 PM EDT on September 19, 2017 (GMT -0400)
Simmons Army Air Field

Weather History for KFBG - July, 2013

Change the Weather History Date:

Wednesday, July 24, 2013

  Actual Average Record
Temperature  
Mean Temperature 82 °F -  
Max Temperature 91 °F 87 °F 100 °F (2011)
Min Temperature 73 °F 71 °F 44 °F (2006)
Cooling Degree Days 17    
Growing Degree Days 32 (Base 50)    
Moisture  
Dew Point 72 °F    
Average Humidity 77    
Maximum Humidity 98    
Minimum Humidity 52    
Precipitation  
Precipitation 0.05 in - - ()
Sea Level Pressure  
Sea Level Pressure 29.78 in    
Wind  
Wind Speed 6 mph (SW)    
Max Wind Speed 15 mph    
Max Gust Speed 17 mph    
Visibility 10 miles    
Events Rain , Thunderstorm    
Averages and records for this station are not official NWS values.
T = Trace of Precipitation, MM = Missing Value Source: NWS Daily Summary

Daily Weather History Graph

Daily Weather History Graph

Search for Another Location

Airport or City:

Trip Planner

Search our weather history database for the weather conditions in past years. The results will help you decide how hot, cold, wet, or windy it might be!

Date:

Astronomy

Jul. 24, 2013 Rise Set
Actual Time 6:19 AM EDT 8:24 PM EDT
Civil Twilight 5:50 AM EDT 8:53 PM EDT
Nautical Twilight 5:16 AM EDT 9:27 PM EDT
Astronomical Twilight 4:38 AM EDT 10:05 PM EDT
Moon 9:38 PM EDT (7/24) 8:29 AM EDT (7/24)
Length of Visible Light 15h 02m
Length of Day
14h 05m
Waning Gibbous, 95% of the Moon is Illuminated
Jul 24
Waning Gibbous
Jul 29
Last Quarter
Aug 6
New
Aug 14
First Quarter
Aug 20
Full

Hourly Weather History & Observations

Time (EDT) Temp. Heat Index Dew Point Humidity Pressure Visibility Wind Dir Wind Speed Gust Speed Precip Events Conditions
12:58 AM 78.6 °F - 73.2 °F 83% 29.80 in 10.0 mi WSW 5.8 mph - N/A   Clear
1:58 AM 77.0 °F - 72.7 °F 86% 29.79 in 10.0 mi West 6.9 mph - N/A   Clear
2:58 AM 77.4 °F - 72.7 °F 85% 29.76 in 10.0 mi WSW 6.9 mph - N/A   Clear
3:58 AM 75.9 °F - 73.2 °F 91% 29.75 in 10.0 mi West 5.8 mph - N/A   Clear
4:58 AM 74.8 °F - 72.9 °F 94% 29.75 in 10.0 mi WSW 3.5 mph - N/A   Clear
5:58 AM 74.1 °F - 73.2 °F 97% 29.76 in 10.0 mi WSW 3.5 mph - N/A   Clear
6:58 AM 73.9 °F - 73.2 °F 98% 29.78 in 10.0 mi SSW 3.5 mph - N/A   Clear
7:58 AM 75.7 °F - 74.1 °F 95% 29.79 in 10.0 mi SSW 4.6 mph - N/A   Clear
8:58 AM 79.9 °F - 75.0 °F 85% 29.80 in 10.0 mi SW 5.8 mph - N/A   Clear
9:58 AM 84.4 °F 92.4 °F 74.8 °F 73% 29.81 in 10.0 mi Variable 2.3 mph - N/A   Clear
10:58 AM 87.6 °F 96.7 °F 74.7 °F 65% 29.80 in 10.0 mi North 2.3 mph - N/A   Clear
11:58 AM 89.1 °F 94.6 °F 70.5 °F 54% 29.80 in 10.0 mi Variable 5.8 mph - N/A   Clear
12:58 PM 90.1 °F 97.8 °F 72.5 °F 56% 29.79 in 10.0 mi NE 2.3 mph - N/A   Partly Cloudy
1:55 PM 91.4 °F 98.4 °F 71.6 °F 52% 29.78 in 10.0 mi Variable 3.5 mph - N/A   Scattered Clouds
1:59 PM 89.6 °F 95.2 °F 70.5 °F 53% 29.78 in 10.0 mi Variable 3.5 mph - N/A   Scattered Clouds
2:58 PM 88.3 °F 95.4 °F 72.1 °F 59% 29.77 in 10.0 mi South 5.8 mph - N/A   Scattered Clouds
3:58 PM 84.9 °F 90.1 °F 71.2 °F 63% 29.76 in 10.0 mi South 8.1 mph - N/A   Clear
4:14 PM 80.6 °F 83.9 °F 69.8 °F 70% 29.78 in 10.0 mi South 8.1 mph 17.3 mph N/A Rain Light Rain
4:16 PM 80.6 °F 84.6 °F 71.6 °F 74% 29.78 in 9.0 mi SSW 8.1 mph 17.3 mph N/A Rain , Thunderstorm Light Thunderstorms and Rain
4:24 PM 80.6 °F 86.2 °F 75.2 °F 84% 29.78 in 3.0 mi SW 12.7 mph - N/A Rain , Thunderstorm Thunderstorms and Rain
4:30 PM 78.8 °F - 75.2 °F 89% 29.78 in 5.0 mi SW 15.0 mph - N/A Rain , Thunderstorm Light Thunderstorms and Rain
4:34 PM 78.8 °F - 73.4 °F 83% 29.78 in 8.0 mi SW 9.2 mph - N/A Rain , Thunderstorm Light Thunderstorms and Rain
4:47 PM 78.8 °F - 71.6 °F 78% 29.78 in 10.0 mi West 10.4 mph - N/A Rain , Thunderstorm Light Rain
4:53 PM 78.8 °F - 71.6 °F 78% 29.79 in 10.0 mi WSW 9.2 mph - N/A Rain , Thunderstorm Light Rain
4:58 PM 79.0 °F - 70.7 °F 76% 29.79 in 10.0 mi SSE 4.6 mph - 0.05 in Rain , Thunderstorm Light Rain
5:08 PM 80.6 °F 83.9 °F 69.8 °F 70% 29.78 in 10.0 mi Calm Calm - N/A   Partly Cloudy
5:58 PM 82.9 °F 86.3 °F 68.9 °F 62% 29.75 in 10.0 mi South 4.6 mph - 0.00 in   Clear
6:58 PM 84.0 °F 88.7 °F 70.7 °F 64% 29.75 in 10.0 mi South 4.6 mph - N/A   Clear
7:58 PM 81.5 °F 85.9 °F 71.6 °F 72% 29.78 in 10.0 mi South 4.6 mph - N/A   Clear
8:58 PM 78.4 °F - 73.6 °F 85% 29.79 in 10.0 mi SSE 4.6 mph - N/A   Clear
9:58 PM 78.1 °F - 73.4 °F 85% 29.81 in 10.0 mi North 3.5 mph - N/A   Partly Cloudy
10:58 PM 78.3 °F - 74.1 °F 87% 29.84 in 10.0 mi NW 4.6 mph - N/A Thunderstorm Mostly Cloudy
11:58 PM 75.7 °F - 72.1 °F 89% 29.86 in 10.0 mi NNE 4.6 mph - N/A Thunderstorm Scattered Clouds